Left ArrowRight Arrow

Hourly Observations for June 15, 2024

Temp ( °F °C ) Dew Point ( °F °C ) Humidity (%) Winds ( mph kmh ) Pressure ( in mb ) Visibility ( mi km ) Precip ( " mm )
12:53 am 00:53 Clear 62 16.7 32 0 32 32 NNW 8 13 29.86 1011 10 16 0.00 0.00
1:53 am 01:53 Clear 58 14.4 34 1.1 40 40 WNW 8 13 29.83 1010 10 16 0.00 0.00
2:53 am 02:53 Clear 55 12.8 35 1.7 47 47 NW 7 11 29.83 1010 10 16 0.00 0.00
3:53 am 03:53 Mostly Cloudy 55 12.8 34 1.1 45 45 NNW 5 7 29.82 1010 10 16 0.00 0.00
4:53 am 04:53 Mostly Cloudy 52 11.1 35 1.7 52 52 Calm 29.81 1009 10 16 0.00 0.00
5:53 am 05:53 Sunny 48 8.9 36 2.2 63 63 W 8 13 29.82 1010 10 16 0.00 0.00
6:53 am 06:53 Mostly Sunny 51 10.6 37 2.8 58 58 Calm 29.80 1009 10 16 0.00 0.00
7:53 am 07:53 Partly Cloudy 58 14.4 34 1.1 40 40 NW 10 17 29.78 1008 10 16 0.00 0.00
8:53 am 08:53 Cloudy 56 13.3 35 1.7 45 45 NW 12 19 29.79 1009 10 16 0.00 0.00
9:53 am 09:53 Cloudy 57 13.9 32 0 38 38 NNW 16 26 29.80 1009 10 16 0.00 0.00
10:53 am 10:53 Cloudy 54 12.2 32 0 43 43 NW 21 33 29.84 1011 10 16 0.00 0.00
11:53 am 11:53 Cloudy with Light Rain 50 10 40 4.4 68 68 NW 13 20 29.89 1012 10 16 0.01 0.13
12:53 pm 12:53 Mostly Cloudy 55 12.8 41 5 59 59 NNW 7 11 29.88 1012 10 16 0.01 0.13
1:07 pm 13:07 Mostly Cloudy 54 12.2 39 3.9 57 57 NNW 5 7 29.86 1011 10 16 0.00 0.00
1:53 pm 13:53 Cloudy 54 12.2 38 3.3 54 54 Calm 29.88 1012 10 16 0.00 0.00
2:53 pm 14:53 Cloudy 51 10.6 37 2.8 58 58 NW 15 24 29.95 1014 10 16 0.01 0.13
3:53 pm 15:53 Cloudy 51 10.6 35 1.7 54 54 N 9 15 29.95 1014 10 16 0.00 0.00
4:53 pm 16:53 Mostly Cloudy 57 13.9 33 0.6 40 40 WSW 18 30 29.94 1014 10 16 0.00 0.00
5:53 pm 17:53 Mostly Cloudy 57 13.9 32 0 38 38 W 10 17 29.96 1015 10 16 0.00 0.00
6:53 pm 18:53 Partly Cloudy 53 11.7 33 0.6 46 46 N 9 15 29.98 1015 10 16 0.01 0.13
7:53 pm 19:53 Cloudy with Light Rain 53 11.7 33 0.6 46 46 W 20 31 29.97 1015 10 16 0.01 0.13
8:14 pm 20:14 Mostly Cloudy 50 10 37 2.8 61 61 NNW 8 13 29.97 1015 10 16 0.01 0.13
8:53 pm 20:53 Mostly Cloudy 51 10.6 36 2.2 56 56 Calm 29.99 1016 10 16 0.01 0.13
9:53 pm 21:53 Mostly Clear 45 7.2 34 1.1 65 65 Calm 30.02 1017 10 16 0.00 0.00
10:53 pm 22:53 Clear 48 8.9 30 -1.1 49 49 W 10 17 30.03 1017 10 16 0.00 0.00
11:53 pm 23:53 Clear 45 7.2 30 -1.1 55 55 SSW 6 9 30.04 1017 10 16 0.00 0.00

Powered by Vaisala Xweather